Regional Weather Roundup
Issued by NWS Newport/Morehead, NC

Home | Current Version | Previous Version | Text Only | Print | Product List | Glossary On
Versions: 1 2 3 4 5 6 7 8 9 10 11 12 13 14 15 16 17 18 19 20 21 22 23 24 25 26 27 28 29 30 31 32 33 34 35 36 37 38 39 40 41 42 43 44 45 46 47 48 49 50
000
ASUS42 KMHX 210024
RWRMHX
WEATHER ROUNDUP FOR EASTERN NORTH CAROLINA
NATIONAL WEATHER SERVICE NEWPORT/MOREHEAD CITY NC
700 PM EST FRI JAN 20 2017

NOTE: "FAIR" INDICATES FEW OR NO CLOUDS BELOW 12,000 FEET
WITH NO SIGNIFICANT WEATHER AND/OR OBSTRUCTIONS TO VISIBILITY

NCZ015>017-031-032-045>047-102-103-210100-
NORTH COAST

CITY           SKY/WX    TMP DP  RH WIND       PRES   REMARKS
EDENTON        CLOUDY    52  50  92 CALM      29.90R
ELIZABETH CITY CLOUDY    50  48  93 N6        29.90R
KITTY HAWK     NOT AVBL
MANTEO         PTCLDY    50  50 100 NE5       29.87S

$$

NCZ045>047-081-094-103-104-210100-
CENTRAL COAST

CITY           SKY/WX    TMP DP  RH WIND       PRES   REMARKS
FRISCO         PTCLDY    53  50  89 N6        29.86R FOG

$$

NCZ095-097-098-100-101-210100-
SOUTHERN COAST

CITY           SKY/WX    TMP DP  RH WIND       PRES   REMARKS
BEAUFORT       CLOUDY    61  59  93 SW5       29.86S
CEDAR ISLAND   NOT AVBL
JACKSONVILLE   CLEAR     61  60  97 CALM      29.86R
PINEY ISLAND   CLOUDY   N/A N/A N/A NE3       29.86R
WILMINGTON     PTCLDY    64  60  87 SW5       29.87R


$$

NCZ011>013-027>030-043-044-078>080-089-090>093-098-210100-
COASTAL PLAIN

CITY           SKY/WX    TMP DP  RH WIND       PRES   REMARKS
AHOSKIE          N/A     49  48  99 N3        29.91S FOG
CLINTON        CLEAR     60  58  95 CALM      29.87R
ELIZABETHTOWN  CLOUDY    61  58  92 CALM      29.87R
GOLDSBORO      CLOUDY    57  57 100 CALM      29.86R
GREENVILLE     PTCLDY    52  52 100 N3        29.91R
HAVELOCK       CLOUDY    62  58  86 CALM      29.87R
KENANSVILLE    CLEAR     57  55  94 CALM      29.87R
KINSTON        CLOUDY    57  55  94 N3        29.88R
NEW BERN       PTCLDY    60  57  89 SE5       29.87R
RICHLANDS      PTCLDY    57  57 100 CALM      29.87R FOG
ROCKY MOUNT    CLOUDY    53  52  96 N6        29.90R
WASHINGTON       N/A     52  51  98 N6          N/A
WHITEVILLE     CLOUDY    62  58  87 CALM      29.87R

$$

AMZ130-135-150-152-154-156-158-170-250-252-270-ANZ085-086-088-633-658-670-210100-
MARINE OBSERVATIONS

STATION/POSITION TIME  TEMP    WIND        PRES    WAVE   SWELL
                       AIR SEA DIR/SP/G            HT/PER HT/PER
                 (UTC) (F)     (DEG/KT/KT) (MB)    (FT/S) (FT/S)
CHESAPEAKE LIGHT NOT AVBL
64 E VA BEACH    2350   56 58   80/ 16/ 17 1011.0    5/11   5/11
DUCK             2336   49 45   10/  4/  6 1011.1
2 E DUCK         0000      45                N/A     4/13   2/13
OREGON INLET     2336   49 48   20/  6/  7 1010.9
13E OREGON INLT  NOT AVBL
HATTERAS CG      2348           10/  5/  5 1010.7
DIAMOND BUOY     2350   71 76  260/ 16/ 19 1010.5    5/14   5/14
CAPE LOOKOUT     0000   64     230/  4/  6 1010.7
BEAUFORT LAB     2336   61 51  250/  1/  2 1010.1
30 SE NEW RVR IN 0008   63 63  250/  8/ 12 1011.2
30 SE NEW RVR IN 2343      63                N/A     4/11   3/11
27 SE WRIGHTSVLE 0008   67 71  230/ 14/ 19 1011.0
5 SE WRIGHTSVLE  0008   56     220/  6/  8 1011.3
225 S CAPE HAT   2350   71 70  220/  8/ 10 1013.4    6/11   5/11
41 SE CHARLESTON 2350   69 70  240/ 12/ 14 1012.1    3/12   2/12

$$




USA.gov is the U.S. government's official web portal to all federal, state and local government web resources and services.